Home > Weather > Amarillo > Past weeks

Flag for USA Past Weather in Amarillo, Texas, USA — Yesterday and Last 2 Weeks

Now
77 °F

Sunny.


Feels Like: 79 °F
Forecast: 58 / 82 °F
Wind: 13 mph from South

Location: Amarillo International Airport

Current Time: May 30, 2016 at 3:32:43 PM

Latest Report: May 30, 2016 at 2:53 PM


Visibility: 10 mi

Pressure: 29.90 "Hg (26.30 "Hg at 1117m altitude)

Humidity: 56%

Dew Point: 60 °F

Location of AmarilloLocation

Past Weather in Amarillo — Graph

°F

Amarillo Temperature Yesterday

Maximum temperature yesterday: 80 °F (at 12:53 PM)
Minimum temperature yesterday: 55 °F (at 10:53 PM)
Average temperature yesterday: 63 °F

High & Low Weather Summary for the Past Weeks

 TemperatureHumidityPressure
High90 °F (May 25, 3:53 PM)97% (May 15, 6:53 PM)30.23 "Hg (May 15, 6:53 PM)
Low46 °F (May 18, 4:53 AM)10% (May 26, 7:53 PM)29.53 "Hg (May 26, 7:53 PM)
Average64 °F65%29.87 "Hg
* Reported May 15 1:53 PM — May 30 1:53 PM, Amarillo, Weather by CustomWeather, © 2016

Note: Actual official high and low records may vary slightly from our data, if they occured in-between our weather recording intervals... More about our weather records

Advertising

Amarillo Weather History for the Previous 24 Hours

Scroll right to see more
 ConditionsComfort  
Time TempWeatherWind HumidityBarometerVisibility
1:53 PM
Mon, May 30
75 °FSunny.13 mph55%29.93 "Hg10 mi
12:53 PM73 °FSunny.14 mph57%29.97 "Hg10 mi
11:53 AM71 °FSunny.14 mph57%29.98 "Hg10 mi
10:53 AM68 °FSunny.10 mph61%30.01 "Hg10 mi
9:53 AM64 °FSunny.6 mph68%30.01 "Hg10 mi
8:53 AM60 °FSunny.9 mph78%30.03 "Hg10 mi
7:53 AM55 °FSunny.3 mph90%30.06 "Hg10 mi
6:53 AM50 °FClear.No wind93%30.07 "Hg10 mi
5:53 AM52 °FPassing clouds.5 mph93%30.07 "Hg10 mi
4:53 AM52 °FClear.6 mph93%30.05 "Hg10 mi
3:53 AM52 °FClear.8 mph89%30.01 "Hg10 mi
2:53 AM53 °FClear.6 mph86%29.95 "Hg10 mi
1:53 AM51 °FClear.8 mph92%29.96 "Hg10 mi
12:53 AM53 °FClear.8 mph93%29.97 "Hg10 mi
11:53 PM
Sun, May 29
56 °FClear.14 mph87%30.00 "Hg10 mi
10:53 PM55 °FClear.24 mph93%29.99 "Hg10 mi
9:53 PM57 °FPassing clouds.18 mph87%30.06 "Hg10 mi
8:53 PM57 °FLight rain. Mostly cloudy.31 mph81%30.04 "Hg10 mi
7:53 PM57 °FSunny.28 mph83%30.06 "Hg10 mi
6:53 PM57 °FMostly cloudy.30 mph87%30.06 "Hg10 mi
5:53 PM56 °FThundershowers. Fog.13 mph90%30.14 "Hg5 mi
5:03 PM57 °FStrong thunderstorms. Fog.9 mph90%30.22 "Hg1 mi
4:53 PM57 °FStrong thunderstorms. Fog.16 mph90%30.15 "Hg1 mi
3:53 PM59 °FThunderstorms. Overcast.26 mph75%30.04 "Hg10 mi
Weather by CustomWeather, © 2016

See weather overviewHow to use our weather pages